DW7792 Weather Reports


Display with metric or nautical units.
time (UTC)temp
F
wind
direction
speed
MPH
gust
MPH
rain 1hr
in
rain 24hr
in
rain mn
in
humidity
%
barometer
mb
20260508141519 45 320 11.0 15.0 0.00 0.85 0.01 99 1001.7
20260508140020 44 314 11.0 16.0 0.00 0.85 0.01 99 1001.7
20260508134516 45 320 9.0 14.0 0.00 0.85 0.01 99 1001.8
20260508133013 46 298 9.0 14.0 0.00 0.85 0.01 99 1002.0
20260508131512 45 322 9.0 13.0 0.00 0.85 0.01 99 1002.2
20260508130011 44 312 11.0 17.0 0.00 0.85 0.01 99 1001.8
20260508124518 43 328 9.0 16.0 0.00 0.85 0.01 99 1001.8
20260508123014 43 310 9.0 12.0 0.00 0.85 0.01 99 1001.8
20260508121505 44 307 6.0 12.0 0.00 0.85 0.01 99 1001.7
20260508120005 43 293 8.0 12.0 0.00 0.86 0.01 99 1001.8
20260508114504 43 313 8.0 12.0 0.00 0.86 0.01 99 1001.9
20260508113106 43 309 7.0 10.0 0.00 0.86 0.01 99 1002.1
20260508111610 42 309 4.0 9.0 0.00 0.86 0.01 99 1002.3
20260508110059 43 304 6.0 8.0 0.00 0.86 0.01 99 1002.2
20260508104604 42 301 4.0 8.0 0.00 0.86 0.01 99 1002.0
20260508103056 42 326 6.0 8.0 0.00 0.86 0.01 99 1002.1
20260508101553 41 312 4.0 7.0 0.00 0.86 0.01 99 1002.4
20260508100051 41 314 2.0 6.0 0.00 0.86 0.01 99 1002.1
20260508094550 41 312 3.0 8.0 0.00 0.86 0.01 99 1002.3
20260508093053 41 310 5.0 9.0 0.00 0.86 0.01 99 1002.3
20260508091555 41 306 6.0 9.0 0.00 0.86 0.01 99 1002.1
20260508090054 41 307 3.0 8.0 0.00 0.86 0.01 99 1001.7
20260508084540 42 303 6.0 9.0 0.00 0.86 0.01 99 1001.5
20260508083039 42 304 5.0 9.0 0.01 0.86 0.01 99 1002.0
20260508081541 42 307 6.0 9.0 0.01 0.86 0.01 99 1002.1
20260508080050 42 300 6.0 10.0 0.01 0.86 0.01 99 1001.5
20260508074537 42 304 8.0 12.0 0.01 0.86 0.01 99 1001.5
20260508073044 42 314 10.0 13.0 0.00 0.85 0.00 99 1001.1
20260508071546 42 308 5.0 10.0 0.00 0.85 0.00 99 1001.4
20260508070049 42 296 7.0 12.0 0.00 0.85 0.00 99 1001.4
20260508064536 42 305 8.0 12.0 0.00 0.85 0.00 99 1001.5
20260508063031 43 294 9.0 14.0 0.00 0.85 0.00 99 1001.8
20260508061529 43 308 10.0 15.0 0.00 0.85 0.00 99 1001.4
20260508060034 43 329 10.0 15.0 0.00 0.85 0.00 99 1001.4
20260508054530 44 306 7.0 13.0 0.00 0.85 0.00 99 1001.7
20260508053022 44 306 7.0 12.0 0.00 0.85 0.00 99 1001.6
20260508051520 44 312 8.0 11.0 0.00 0.85 0.00 98 1001.6
20260508050017 45 316 6.0 9.0 0.00 0.85 0.00 99 1001.3
20260508044515 45 295 5.0 10.0 0.00 0.85 0.00 98 1001.2
20260508043015 45 304 7.0 10.0 0.00 0.85 0.00 98 1001.4
20260508041509 45 305 7.0 12.0 0.00 0.85 0.00 98 1001.3
20260508040007 47 314 6.0 9.0 0.00 0.85 0.00 98 1001.5
20260508034504 48 311 5.0 11.0 0.00 0.85 0.00 98 1001.8
20260508033001 48 326 8.0 11.0 0.00 0.85 0.00 99 1001.9
20260508031600 48 353 8.0 15.0 0.00 0.85 0.00 99 1001.9
20260508030109 48 291 8.0 12.0 0.00 0.85 0.85 98 1002.0
20260508024619 48 302 8.0 10.0 0.00 0.85 0.85 99 1002.1
20260508023055 48 290 4.0 9.0 0.00 0.85 0.85 98 1002.3
20260508021555 48 300 9.0 12.0 0.00 0.85 0.85 98 1002.1
20260508020107 48 312 8.0 12.0 0.00 0.85 0.85 98 1002.1
20260508014559 48 305 6.0 10.0 0.00 0.85 0.85 98 1002.4
20260508013104 49 297 7.0 14.0 0.00 0.85 0.85 98 1002.3
20260508011554 49 308 9.0 13.0 0.00 0.85 0.85 97 1002.3
20260508010051 49 299 11.0 18.0 0.00 0.85 0.85 97 1002.0
20260508004548 52 289 4.0 6.0 0.00 0.85 0.85 98 1001.8
20260508003046 52 324 3.0 8.0 0.00 0.85 0.85 98 1002.0
20260508001553 52 316 4.0 8.0 0.00 0.85 0.85 97 1002.0
20260508000045 52 310 4.0 6.0 0.00 0.85 0.85 97 1001.7
20260507234545 52 299 4.0 6.0 0.00 0.85 0.85 97 1001.6
20260507233045 53 297 2.0 5.0 0.00 0.85 0.85 97 1001.8
20260507231546 53 297 3.0 9.0 0.00 0.85 0.85 97 1002.2
20260507230046 53 312 3.0 6.0 0.00 0.85 0.85 98 1002.0
20260507224543 53 214 0.0 5.0 0.00 0.85 0.85 98 1002.1
20260507223042 53 214 2.0 12.0 0.00 0.85 0.85 97 1002.0
20260507221541 53 214 8.0 12.0 0.00 0.85 0.85 98 1001.9
20260507220040 53 213 3.0 11.0 0.00 0.85 0.85 98 1001.9
20260507214545 53 230 11.0 16.0 0.00 0.85 0.85 98 1001.4
20260507213045 52 156 6.0 13.0 0.00 0.85 0.85 98 1001.8
20260507211548 52 145 4.0 10.0 0.00 0.85 0.85 98 1002.3
20260507210041 52 129 2.0 11.0 0.02 0.85 0.85 98 1002.2
20260507204539 51 122 9.0 15.0 0.03 0.85 0.85 98 1001.4
20260507203036 51 119 9.0 16.0 0.06 0.85 0.85 98 1001.5
20260507201543 51 117 10.0 17.0 0.11 0.85 0.85 98 1001.4
20260507200038 52 123 10.0 17.0 0.17 0.83 0.83 98 1002.0
20260507194531 52 113 7.0 10.0 0.22 0.82 0.82 98 1002.7
20260507193034 52 149 8.0 12.0 0.26 0.79 0.79 98 1002.7
20260507191528 52 166 6.0 11.0 0.28 0.74 0.74 97 1003.2
20260507190026 52 158 7.0 14.0 0.31 0.67 0.67 97 1003.6
20260507184525 52 193 10.0 16.0 0.35 0.60 0.60 97 1003.9
20260507183023 53 205 10.0 18.0 0.38 0.52 0.52 97 1004.4
20260507181523 53 179 9.0 14.0 0.38 0.45 0.45 98 1004.7
20260507180037 53 186 8.0 13.0 0.32 0.36 0.36 98 1004.7
20260507174525 52 185 9.0 16.0 0.22 0.25 0.25 98 1005.0
20260507173024 52 205 10.0 17.0 0.12 0.13 0.13 97 1005.1
20260507171516 51 171 9.0 20.0 0.06 0.06 0.06 97 1004.6
20260507170031 51 190 14.0 24.0 0.03 0.04 0.04 97 1004.5
20260507164512 51 142 12.0 20.0 0.02 0.03 0.03 97 1004.9
20260507161507 51 155 12.0 24.0 0.00 0.01 0.01 96 1005.6
20260507160004 51 141 14.0 26.0 0.00 0.01 0.01 96 1006.0
20260507154504 52 150 16.0 25.0 0.00 0.01 0.01 95 1006.4
20260507153107 52 157 15.0 27.0 0.00 0.01 0.01 96 1007.0
20260507144552 54 165 14.0 23.0 0.00 0.01 0.01 94 1008.2
20260507143103 55 157 16.0 28.0 0.00 0.01 0.01 94 1008.2